CAPE
494 356 385 423 510 622 714 775 808 901 1076 980 769 475 117 22 5 84 360 848 1439 1780 2107 1601 1354 1633 1279 1064 1037 883 694 86 48 0 14 26 33 32 36 41 31 39 46
600 449 400 411 410 557 659 901 888 1000 1163 1005 828 366 71 35 49 158 689 1386 1627 1977 2084 1800 1426 1579 1384 1449 1486 945 341 87 0 9 23 20 17 18 32 30 24 10 15
713 547 368 349 370 477 691 941 1237 1315 1468 985 883 648 244 172 219 388 1160 1715 1990 1982 2260 1629 1094 1682 1514 1262 1644 1287 728 49 0 43 30 6 17 15 6 35 29 12 16
810 725 483 414 394 520 729 895 1329 1573 1749 1405 825 810 232 86 189 438 902 1238 1754 1854 1988 1943 1772 2213 1599 1602 1631 1414 831 494 0 0 0 33 150 12 18 2 15 6 12
816 862 717 438 458 558 692 910 1310 1665 1710 1805 1121 1131 910 320 221 372 906 1693 1751 1861 1716 2020 2206 2205 2010 1767 2132 1564 1234 578 4 0 0 0 0 0 2 26 17 16 15
772 857 923 697 511 596 761 877 1332 1689 1732 1730 1682 1524 1451 1044 502 732 791 968 1096 1422 1691 1806 2161 2207 2072 2068 2162 1913 1394 979 186 0 5 0 0 0 0 1 0 14 24
688 818 971 996 733 601 758 872 1219 1664 1696 1620 1707 1715 1699 1702 1396 1351 1165 1081 805 736 1186 1872 2001 1961 2368 2083 2140 2168 1432 1366 626 82 4 0 0 0 0 0 0 0 5
719 788 950 1084 1078 832 907 969 1142 1573 1714 1603 1829 1962 2007 1595 1668 1628 1255 1217 930 927 994 1598 1806 1958 1971 2183 2093 2082 1687 1136 954 338 38 1 15 16 0 0 0 0 0
672 835 889 1044 1149 1190 1211 1272 1333 1593 1670 1584 1897 2051 2060 1860 1301 1557 1865 1391 1475 1147 1252 1393 1845 1817 1965 2100 2177 1904 1770 899 911 275 291 37 4 39 4 0 0 0 0
569 772 903 968 1110 1270 1316 1378 1495 1437 1593 1688 1791 1778 1876 2037 1866 1951 1964 1744 1559 1595 1265 1575 1676 1774 1979 2256 2307 1845 1768 1473 832 318 82 175 0 21 22 0 0 0 0
358 499 614 802 986 1212 1383 1467 1559 1588 1622 1725 1855 1819 1780 1840 1977 1951 2011 2098 1827 1942 1871 1781 1787 1677 2069 2296 2413 2100 1717 1767 1316 795 253 283 141 9 0 6 2 0 0
0 36 249 514 738 1021 1212 1399 1442 1525 1616 1684 1893 1874 1924 1918 1803 1979 2008 2147 2027 2015 2163 2070 2030 1864 1820 2062 2239 2254 1711 1872 1628 1402 949 382 242 282 49 15 27 0 0
0 17 21 88 486 820 1065 1068 1372 1317 1398 1756 1797 1813 1841 1865 1931 2102 2081 2162 2123 2172 1873 2175 2280 2113 1954 2015 2103 2199 2229 1970 1938 1705 1445 936 300 293 38 59 0 0 0
0 0 0 21 163 519 1042 1265 990 1164 1196 1444 1648 1848 2040 1947 2016 2188 2135 2188 2255 2279 2227 2198 2534 2375 2165 2035 1982 2011 2144 2175 2011 2018 1778 1356 901 479 425 158 94 7 0
0 0 33 101 363 490 900 1475 1106 1037 1115 1449 1578 1898 2156 2261 2223 2194 2206 2246 2379 2308 2367 2352 2433 2581 2194 1965 2181 2104 2012 2236 2140 2104 2068 1766 1404 842 725 532 269 140 170
0 0 0 0 181 592 975 1013 1414 1144 1137 1504 1688 1861 2214 2422 2343 2374 2319 2355 2339 2386 2417 2313 2494 2461 2219 1811 1559 2053 1973 2348 2288 2242 2193 1994 1323 919 456 324 223 334 344
0 0 0 0 140 454 712 885 1197 1196 1273 1498 1857 1963 2240 2368 2429 2515 2509 2394 2379 2502 2432 2407 2431 2527 2553 1733 1419 1396 1786 2266 2279 2322 2398 2206 1931 1289 1094 274 85 42 115
0 0 0 0 2 92 8 574 816 1295 1413 1671 1829 2079 2206 2424 2627 2619 2586 2554 2584 2526 2673 2626 2605 2598 2735 2137 1337 1210 1556 2218 2295 2335 2493 2513 2310 1933 1460 1273 474 197 204
0 0 0 0 0 0 0 32 807 1100 1460 1692 1854 1998 2208 2235 2465 2683 2610 2745 2644 2594 2637 2565 2730 2855 2814 2246 1616 1277 1566 1723 2427 2353 2436 2565 2574 2354 1275 1409 1181 971 769
0 0 0 0 0 0 5 209 640 965 1507 1622 1786 2029 2242 2305 2337 2654 2758 2754 2670 2554 2475 2542 2696 2765 2912 2581 1677 1457 1707 1796 1860 2436 2561 1983 2352 2088 1265 1213 1370 1339 1327
0 0 0 0 0 97 244 298 669 910 1492 1751 1814 2108 2369 2477 2527 2798 2805 2802 2726 2484 2714 2711 2702 2872 2890 2798 1760 1390 1783 1896 1929 1704 2055 2172 1638 1280 1008 754 1066 1183 1428
279 728 91 0 0 231 88 178 448 1062 1727 1884 2005 2337 2631 2391 2340 2847 3040 2864 2810 2816 2661 2577 2645 2666 2904 2564 1881 1523 1307 1884 2036 2019 1687 2025 1301 781 545 405 689 682 773
738 1245 0 14 895 1282 896 569 1041 1520 1686 2002 2223 2412 2688 2807 2648 2994 3135 2968 3015 2633 2599 2286 2794 2499 2821 2693 2128 1270 1064 1072 1702 1986 1978 1602 795 466 227 255 255 403 637
1995 1782 1072 869 1433 1974 2122 2302 2112 2071 2051 2090 2260 2492 2743 2847 2812 2689 2945 2710 2570 2823 2590 2664 2777 2652 2743 2760 2586 1433 808 960 810 1044 853 477 326 92 53 37 104 284 303
1098 1237 1512 1513 1440 1554 1623 1849 2418 3053 2424 2581 2704 2781 2744 2819 3019 3044 2829 2771 2760 2774 2873 2811 2648 2604 2583 2639 2541 1367 925 904 598 183 149 13 26 2 0 38 102 162 173
727 679 680 706 756 694 691 701 725 866 1551 2070 2056 1997 2042 2298 2671 2745 3068 1848 2037 1942 2176 2332 1968 1848 1990 1869 1529 524 601 217 7 204 105 24 5 9 6 48 47 121 108
CIN
-97 -110 -100 -81 -57 -39 -30 -41 -42 -46 -31 -35 -45 -66 -104 -119 -51 -88 -41 -27 -24 -11 -8 -1 -6 -1 -2 0 0 -1 -1 -21 -10 0 -3 -3 -1 -2 -2 -1 -1 -1 -2
-78 -108 -111 -89 -97 -81 -71 -42 -60 -53 -51 -44 -48 -78 -124 -111 -117 -81 -27 -19 -12 -12 -14 -11 -3 -1 0 -1 0 -3 -1 -10 0 -1 -2 -1 -2 -3 -1 -1 -1 0 -2
-76 -106 -121 -131 -112 -111 -107 -80 -52 -41 -32 -38 -31 -57 -89 -97 -88 -48 -5 -3 -10 -11 -17 -4 -11 0 -3 -1 0 -1 -3 -8 0 -35 -9 -2 -2 -2 -2 -1 -1 -3 -1
-81 -68 -100 -111 -140 -136 -119 -104 -59 -29 -15 -34 -52 -71 -120 -134 -90 -44 -2 -1 -9 -6 -6 -7 -6 -1 -1 -1 -1 -1 -2 -8 0 0 0 -38 -10 -2 -2 -1 -2 0 -3
-100 -72 -98 -124 -120 -114 -125 -120 -82 -37 -13 -17 -52 -51 -57 -81 -63 -29 -2 -2 -2 -6 -1 -1 -3 -2 -4 -1 0 0 -9 -10 -2 0 0 0 0 0 -1 -2 -2 -1 -1
-98 -101 -95 -96 -97 -96 -101 -109 -90 -73 -36 -35 -42 -37 -38 -43 -61 -38 -15 -3 -1 -1 -7 -2 -4 -2 0 0 -1 0 -7 -19 -97 0 -33 0 0 0 0 -1 0 -1 -2
-115 -116 -97 -94 -98 -131 -127 -123 -116 -97 -82 -73 -56 -62 -49 -34 -39 -31 -30 -2 -3 -4 -1 -7 -8 -1 -4 -2 -1 0 -12 -21 -67 -155 -68 0 0 0 0 0 0 0 -1
-94 -104 -107 -102 -124 -132 -140 -130 -137 -130 -104 -105 -82 -68 -56 -48 -36 -33 -13 -15 -5 -6 -6 -10 -9 -10 -8 -10 -5 -1 -10 -50 -70 -128 -150 -8 -139 -121 0 0 0 0 0
-71 -108 -112 -115 -130 -132 -160 -158 -150 -167 -137 -133 -119 -104 -94 -80 -78 -52 -38 -25 -15 -1 -8 -21 -16 -8 -14 -14 -10 -9 -20 -80 -94 -147 -152 -118 -126 -130 -111 0 0 0 0
-68 -82 -104 -129 -144 -158 -177 -192 -199 -210 -190 -153 -146 -140 -142 -134 -106 -63 -53 -45 -27 -27 -1 -20 -15 -9 -8 -12 -15 -14 -32 -56 -103 -142 -211 -167 0 -193 -169 0 0 0 0
-50 -70 -96 -125 -145 -165 -182 -216 -225 -219 -201 -181 -174 -167 -168 -145 -140 -109 -91 -64 -50 -35 -33 -26 -24 -13 -4 -7 -11 -16 -29 -51 -83 -116 -190 -200 -207 -277 0 -209 -166 0 0
0 -59 -61 -89 -131 -157 -193 -227 -263 -256 -263 -251 -234 -209 -181 -170 -155 -154 -119 -97 -88 -59 -48 -32 -29 -27 -15 -9 -15 -20 -42 -50 -74 -81 -113 -203 -210 -194 -245 -291 -278 0 0
0 -141 -98 -106 -118 -152 -200 -239 -265 -275 -267 -270 -253 -239 -228 -204 -193 -173 -159 -133 -115 -100 -68 -47 -35 -40 -37 -29 -40 -43 -32 -54 -68 -68 -80 -125 -231 -216 -292 -307 -70 0 0
0 0 0 -153 -147 -162 -198 -240 -262 -277 -271 -285 -290 -281 -290 -279 -268 -223 -203 -170 -153 -117 -103 -75 -48 -47 -46 -49 -69 -79 -63 -56 -68 -62 -64 -91 -139 -210 -230 -276 -277 -304 0
0 0 -208 -162 -170 -178 -227 -280 -306 -277 -292 -286 -299 -320 -336 -306 -282 -279 -258 -218 -164 -152 -129 -105 -74 -58 -52 -69 -85 -103 -107 -73 -71 -68 -63 -69 -81 -166 -180 -172 -232 -242 -215
0 0 0 0 -200 -216 -245 -275 -339 -370 -367 -317 -347 -341 -352 -327 -337 -304 -283 -247 -215 -194 -164 -151 -110 -92 -89 -123 -176 -139 -130 -103 -90 -79 -65 -56 -118 -185 -292 -305 -268 -201 -155
0 0 0 0 -183 -213 -257 -304 -341 -347 -388 -392 -369 -369 -374 -377 -368 -305 -270 -279 -270 -210 -230 -206 -165 -136 -131 -180 -243 -266 -168 -125 -107 -86 -51 -45 -47 -155 -164 -399 -412 -442 -339
0 0 0 0 -23 -238 -72 -293 -331 -412 -428 -462 -410 -414 -408 -383 -315 -297 -328 -322 -272 -249 -203 -206 -199 -163 -147 -216 -289 -295 -226 -118 -112 -92 -59 -52 -48 -68 -109 -111 -293 -344 -301
0 0 0 0 0 0 0 -361 -339 -398 -456 -493 -493 -473 -451 -414 -338 -335 -384 -321 -265 -238 -195 -151 -131 -117 -139 -235 -342 -337 -228 -194 -108 -121 -76 -41 -28 -35 -184 -84 -79 -85 -101
0 0 0 0 0 0 -161 -363 -334 -392 -480 -516 -518 -464 -440 -443 -433 -372 -311 -283 -257 -257 -220 -208 -182 -164 -116 -117 -263 -329 -201 -180 -165 -91 -79 -161 -81 -72 -181 -140 -53 -41 -29
0 0 0 0 0 -488 -377 -331 -309 -328 -394 -449 -457 -477 -466 -467 -432 -363 -344 -309 -286 -250 -237 -216 -230 -185 -169 -155 -319 -367 -248 -162 -159 -137 -99 -109 -214 -236 -271 -273 -167 -118 -9
-277 -205 -373 0 0 -484 -511 -426 -342 -333 -397 -413 -440 -436 -435 -443 -431 -369 -309 -296 -273 -270 -274 -272 -281 -383 -233 -261 -422 -441 -440 -240 -99 -133 -145 -108 -302 -398 -393 -403 -243 -154 -66
-203 -217 0 -485 -417 -390 -403 -384 -339 -384 -410 -412 -425 -411 -398 -392 -375 -345 -294 -272 -257 -300 -323 -335 -269 -330 -312 -345 -432 -587 -506 -419 -220 -47 -56 -137 -320 -431 -499 -428 -390 -222 -64
-189 -230 -307 -355 -389 -372 -345 -317 -414 -419 -421 -434 -412 -388 -351 -341 -333 -329 -298 -302 -291 -292 -326 -277 -281 -289 -256 -290 -350 -521 -641 -435 -348 -225 -227 -326 -316 -335 -410 -497 -375 -110 -106
-305 -299 -297 -352 -452 -494 -508 -503 -419 -312 -361 -341 -318 -307 -301 -304 -266 -267 -269 -266 -246 -215 -222 -237 -204 -204 -262 -302 -349 -568 -646 -584 -515 -557 -450 -316 -315 -1 0 -171 -170 -94 -91
-362 -388 -415 -468 -534 -590 -644 -686 -702 -653 -479 -345 -298 -288 -265 -255 -256 -240 -208 -409 -377 -375 -280 -256 -285 -238 -251 -330 -462 -735 -641 -746 -394 -513 -413 -323 -61 -249 -188 -93 -79 -25 -32
Wind_Speed
31 33 35 38 38 39 38 37 36 33 31 30 32 32 30 28 27 27 26 25 22 20 18 16 14 14 13 15 15 14 15 15 15 18 16 15 14 14 14 15 16 15 14
35 33 36 37 38 39 39 38 38 35 33 31 33 31 28 26 27 26 24 24 23 21 19 17 14 14 14 14 15 14 16 16 18 18 18 18 18 16 16 15 15 16 15
32 36 36 40 39 40 39 40 39 37 35 35 33 31 27 30 29 27 24 23 22 21 19 15 14 13 15 14 15 16 17 18 19 18 16 19 18 19 16 15 15 15 16
32 37 38 37 39 40 40 41 41 39 35 32 28 27 28 26 28 26 23 19 18 19 18 16 14 14 15 15 16 16 16 17 19 19 18 16 15 16 17 16 15 14 14
32 32 40 38 40 40 40 40 40 40 37 28 32 25 32 30 28 29 22 19 14 18 16 15 16 15 14 15 15 16 17 17 17 18 18 17 16 15 14 14 14 13 12
31 38 41 40 38 38 38 37 37 38 37 31 31 29 28 33 26 12 18 20 18 13 15 13 16 17 15 17 16 17 17 17 17 17 17 16 16 15 14 13 12 10 11
39 40 38 38 39 36 35 36 33 32 31 31 28 29 27 24 20 10 12 8 13 14 12 14 14 16 17 17 18 17 17 17 17 17 16 15 14 14 13 12 14 13 12
43 39 39 40 39 37 33 31 30 30 29 30 29 25 23 23 21 15 11 7 7 8 10 10 14 15 16 16 17 18 18 18 17 16 15 14 13 12 12 12 14 15 12
25 36 36 38 37 36 34 32 30 32 31 29 23 22 20 22 20 18 10 11 5 4 6 9 12 13 14 17 15 21 18 18 17 15 14 13 11 10 10 11 11 10 9
15 23 14 38 36 36 35 34 33 30 28 25 23 22 20 18 18 14 15 12 9 9 5 8 10 12 13 15 15 17 18 17 16 16 13 12 12 9 9 9 10 10 8
14 12 12 25 33 31 28 33 31 29 25 26 27 26 26 24 20 19 17 16 12 10 11 9 9 12 12 13 15 19 19 17 16 16 13 12 10 8 8 8 10 9 7
30 29 22 16 11 21 22 26 27 26 29 28 27 27 25 24 25 24 21 16 15 14 13 12 11 12 14 14 15 18 20 18 16 15 13 11 7 8 7 8 8 6 6
29 27 23 16 12 12 20 25 25 30 28 27 27 27 28 26 26 24 23 21 19 18 19 17 16 15 15 15 15 19 20 20 19 15 13 10 6 6 8 8 3 3 3
24 30 30 15 13 11 11 17 23 24 27 28 28 28 29 28 26 24 25 26 23 22 21 21 19 18 17 18 18 20 21 19 20 17 13 11 8 7 7 7 3 2 5
20 25 28 27 25 20 13 12 16 20 23 27 27 28 27 25 23 24 26 27 26 25 23 21 21 21 20 21 22 22 21 19 19 18 15 12 10 10 7 4 2 2 3
35 33 30 30 30 26 18 14 11 19 21 23 29 24 23 23 24 23 24 23 25 25 24 24 23 23 24 27 27 23 22 21 20 19 15 11 11 12 12 9 6 5 6
35 31 28 29 29 24 24 17 13 14 16 25 21 21 21 24 24 19 19 22 24 22 24 24 24 25 26 27 30 30 24 21 20 18 15 13 11 12 11 12 12 8 8
41 40 37 32 30 29 28 25 20 15 16 18 20 19 24 23 18 17 19 21 21 23 22 23 24 24 26 26 28 29 26 21 20 19 18 17 15 13 12 11 10 11 10
41 41 41 38 36 35 30 26 19 16 16 18 20 21 20 19 18 19 20 18 18 19 20 19 20 23 26 25 26 26 26 26 24 23 21 20 18 16 14 13 12 10 10
37 39 38 38 36 35 29 23 19 18 17 17 20 18 17 18 19 18 17 16 19 20 21 21 21 21 22 23 25 27 25 25 26 24 23 23 21 19 17 16 15 14 13
34 34 34 34 32 26 21 19 19 16 17 21 19 19 18 18 19 20 20 19 21 21 21 23 24 24 23 25 25 30 28 28 27 27 26 25 24 22 20 19 18 18 15
35 32 30 27 25 23 21 19 17 17 17 18 18 18 19 18 18 18 20 20 21 21 21 23 24 23 26 27 27 31 35 29 28 29 29 27 24 23 22 20 19 18 14
35 31 27 23 21 20 19 19 20 17 17 16 17 18 19 19 21 20 21 23 23 23 24 23 25 26 25 28 30 30 31 34 30 30 31 30 26 25 24 22 19 16 16
26 23 21 19 19 17 16 15 15 15 16 19 19 19 19 18 18 18 19 20 22 23 25 27 27 26 26 27 27 29 30 30 30 28 24 22 23 21 20 22 21 21 18
19 17 15 13 13 12 13 13 15 16 17 18 19 18 18 18 19 20 21 22 23 23 25 27 28 31 30 30 28 28 28 28 29 23 21 22 20 17 18 18 23 22 20
15 15 14 13 11 11 12 13 14 15 16 17 17 19 21 21 21 24 25 28 28 28 27 29 28 28 29 27 27 26 24 23 22 23 21 17 19 17 17 19 22 21 19
Wind_Direction
176 177 179 183 185 186 183 182 181 175 172 173 181 186 185 182 186 194 190 189 184 179 174 180 141 152 142 95 101 96 88 99 88 83 55 46 49 45 27 15 15 35 25
186 180 182 182 183 185 185 183 184 180 177 177 186 185 180 176 184 185 180 185 189 187 183 169 145 138 129 116 96 105 106 110 115 125 107 85 87 86 79 46 35 19 38
178 185 182 186 184 187 184 186 187 184 181 186 183 185 179 200 194 185 179 181 181 176 169 152 147 130 146 131 106 106 120 110 124 140 148 121 118 121 109 109 94 86 55
181 186 188 182 184 188 185 190 191 188 181 175 171 173 178 177 184 180 175 169 166 169 165 162 145 136 134 148 116 123 130 134 119 127 141 159 167 150 127 140 132 128 117
180 178 189 186 187 186 185 187 189 189 186 174 181 172 188 189 186 191 175 172 158 170 166 157 157 148 142 133 127 119 129 121 134 120 113 129 139 149 153 125 114 136 134
182 188 191 192 185 183 184 183 183 186 185 180 181 182 180 195 180 161 169 176 175 162 167 157 160 159 151 157 144 141 132 136 137 135 126 117 107 98 103 96 87 105 98
192 190 185 185 186 181 181 183 181 182 182 183 183 185 184 181 178 170 168 159 165 168 162 165 160 160 159 157 159 150 148 144 144 143 136 135 125 110 98 95 70 62 77
206 189 186 187 187 185 180 181 181 184 184 185 187 186 187 187 188 186 182 180 178 166 162 164 168 165 162 161 157 161 162 155 152 145 146 135 121 105 92 78 41 46 74
231 183 184 186 185 185 183 182 181 186 186 188 190 193 196 195 193 192 205 196 207 199 179 171 172 171 168 166 159 173 166 162 158 155 152 148 128 116 108 76 68 85 109
228 225 197 189 187 187 186 185 186 186 188 191 195 199 202 205 205 211 205 205 210 201 199 185 181 178 176 172 169 170 170 168 166 169 158 157 158 136 125 126 130 149 143
227 205 193 182 187 185 185 189 190 191 193 191 193 195 197 199 204 207 209 211 222 215 204 205 199 192 187 183 178 180 177 175 175 176 170 170 161 145 131 140 159 158 137
243 245 251 248 223 186 189 190 191 194 193 192 191 192 193 195 196 199 202 211 212 215 217 217 215 209 200 195 190 186 185 182 183 182 181 179 162 161 149 156 162 146 56
249 250 253 250 243 207 189 190 192 193 192 192 193 193 193 192 193 193 193 194 197 201 200 202 207 212 211 207 205 195 193 192 192 190 189 185 175 169 171 175 142 102 47
254 250 253 244 250 238 213 195 194 197 195 194 196 196 196 196 195 195 195 195 195 195 196 199 203 207 214 213 210 203 201 201 198 197 197 196 197 191 186 186 187 4 359
273 263 254 249 254 259 248 211 204 203 200 197 198 199 199 200 202 202 199 198 197 197 198 199 202 205 210 210 209 208 207 208 206 203 205 208 211 203 203 205 240 310 316
260 263 257 252 255 257 260 257 229 201 206 201 199 201 201 201 204 206 205 204 202 202 203 203 203 204 206 206 207 211 214 214 212 213 217 224 221 220 216 226 273 279 300
263 262 259 261 262 259 264 263 254 253 220 201 209 209 209 204 206 217 217 213 210 210 209 208 208 207 208 207 206 207 213 219 223 223 233 237 240 235 236 235 228 251 272
251 249 257 265 265 265 268 269 267 258 233 217 209 211 199 203 207 215 216 216 220 217 217 216 214 215 213 211 210 210 217 233 234 239 242 246 249 250 257 264 252 255 268
251 253 255 260 263 265 270 272 262 256 247 233 212 207 208 212 213 217 217 233 238 239 234 236 233 224 220 217 215 215 222 226 233 233 246 248 256 258 250 265 263 274 273
263 259 261 262 264 265 271 268 259 255 244 228 221 235 229 227 224 227 240 248 256 252 252 244 243 239 240 252 228 222 230 235 231 234 242 240 249 260 259 263 271 273 280
269 270 270 266 265 270 269 268 262 249 251 259 250 243 239 239 244 251 251 251 257 261 254 252 249 252 250 250 236 225 232 242 245 247 251 252 246 257 255 256 268 275 286
269 273 276 274 269 272 268 269 263 267 261 258 256 257 252 249 254 249 252 250 256 256 252 250 242 247 244 241 238 230 227 242 248 253 256 258 250 249 252 249 266 277 282
268 273 276 275 270 274 273 271 271 266 265 263 261 261 259 257 265 258 259 262 259 257 257 254 253 256 248 243 233 235 232 232 252 259 265 262 259 255 254 258 257 264 273
271 276 278 276 270 275 278 278 277 274 270 271 272 272 268 265 264 262 260 261 260 259 260 258 259 259 257 247 252 247 246 242 246 266 261 253 261 263 263 261 260 263 270
277 279 281 286 280 281 282 286 287 285 280 279 279 280 279 273 274 271 271 269 268 265 265 265 266 267 265 251 253 255 249 241 245 249 254 254 250 249 271 266 262 262 262
277 277 282 287 292 292 294 297 296 294 292 291 290 288 286 285 283 283 281 283 282 282 273 273 274 270 266 261 261 254 254 243 232 240 251 256 235 253 272 271 254 255 256